Iguazu, Argentina

2:01 AM America on December 18, 2017 (GMT +0000)
Mayor D Carlos Eduardo Krause

Weather History for SARI - December, 2012

Change the Weather History Date:

Sunday, December 9, 2012

  Actual Average Record
Temperature  
Mean Temperature 80 °F -  
Max Temperature 91 °F 85 °F 95 °F (2000)
Min Temperature 70 °F 66 °F 59 °F (2003)
Cooling Degree Days 16    
Growing Degree Days 30 (Base 50)    
Moisture  
Dew Point 75 °F    
Average Humidity 85    
Maximum Humidity 100    
Minimum Humidity 59    
Precipitation  
Precipitation 0.00 in - - ()
Sea Level Pressure  
Sea Level Pressure 29.90 in    
Wind  
Wind Speed 3 mph ()    
Max Wind Speed 12 mph    
Max Gust Speed -    
Visibility 6.2 miles    
Events Fog    
Averages and records for this station are not official NWS values.
T = Trace of Precipitation, MM = Missing Value Source: Averaged Metar Reports

Daily Weather History Graph

Daily Weather History Graph

Search for Another Location

Airport or City:

Trip Planner

Search our weather history database for the weather conditions in past years. The results will help you decide how hot, cold, wet, or windy it might be!

Date:

Astronomy

Dec. 09, 2012 Rise Set
Actual Time 5:39 AM -03 7:21 PM -03
Civil Twilight 5:13 AM -03 7:47 PM -03
Nautical Twilight 4:42 AM -03 8:18 PM -03
Astronomical Twilight 4:09 AM -03 8:51 PM -03
Moon 2:14 AM -03 (12/9) 3:27 PM -03 (12/9)
Length of Visible Light 14h 34m
Length of Day
13h 42m
Waning Crescent, 19% of the Moon is Illuminated
Dec 9
Waning Crescent
Dec 13
New
Dec 20
First Quarter
Dec 28
Full
Jan 5
Last Quarter

Hourly Weather History & Observations

Time (-03) Temp. Heat Index Dew Point Humidity Pressure Visibility Wind Dir Wind Speed Gust Speed Precip Events Conditions
12:00 AM 73.4 °F - 73.4 °F 100% 29.95 in 6.2 mi Calm Calm - N/A   Overcast
1:00 AM 73.4 °F - 73.4 °F 100% 29.92 in 6.2 mi SSW 6.9 mph - N/A   Scattered Clouds
2:00 AM 71.6 °F - 71.6 °F 100% 29.92 in - South 9.2 mph - N/A   Clear
3:00 AM 72 °F - 72 °F 100% 29.84 in 12 mi Calm Calm - -   Partly Cloudy
3:00 AM 71.6 °F - 71.6 °F 100% 29.92 in - Calm Calm - N/A   Clear
5:00 AM 71.6 °F - 71.6 °F 100% 29.92 in - Calm Calm - N/A   Clear
6:00 AM 71.6 °F - 71.6 °F 100% 29.95 in 0.2 mi Calm Calm - N/A Fog Fog
6:44 AM 71.6 °F - 71.6 °F 100% 29.95 in 3.1 mi Calm Calm - N/A Fog Fog
7:00 AM 73.4 °F - 73.4 °F 100% 29.95 in - NE 4.6 mph - N/A   Clear
8:00 AM 77.0 °F - 75.2 °F 94% 29.98 in 6.2 mi NE 4.6 mph - N/A   Scattered Clouds
9:00 AM 80 °F - 76 °F 83% 29.91 in 9 mi Calm Calm - -   Partly Cloudy
9:00 AM 80.6 °F 86.2 °F 75.2 °F 84% 29.98 in 6.2 mi Calm Calm - N/A   Scattered Clouds
10:00 AM 80.6 °F 87.1 °F 77.0 °F 89% 29.98 in 6.2 mi NE 5.8 mph - N/A   Scattered Clouds
11:00 AM 84.2 °F 94.1 °F 77.0 °F 79% 29.95 in 6.2 mi NE 2.3 mph - N/A   Scattered Clouds
12:00 PM 86.0 °F 96.9 °F 77.0 °F 74% 29.95 in 6.2 mi Calm Calm - N/A   Scattered Clouds
1:00 PM 87.8 °F 97.6 °F 75.2 °F 66% 29.92 in 6.2 mi West 5.8 mph - N/A   Scattered Clouds
2:00 PM 91.4 °F 105.1 °F 77.0 °F 63% 29.89 in 6.2 mi SSW 8.1 mph - N/A   Mostly Cloudy
3:00 PM 91.4 °F 105.1 °F 77.0 °F 63% 29.86 in 6.2 mi SW 5.8 mph - N/A   Scattered Clouds
4:00 PM 91.4 °F 105.1 °F 77.0 °F 63% 29.83 in 6.2 mi SSW 11.5 mph - N/A   Partly Cloudy
5:00 PM 91.4 °F 102.5 °F 75.2 °F 59% 29.80 in 6.2 mi SSW 8.1 mph - N/A   Partly Cloudy
6:00 PM 87.8 °F 102.5 °F 78.8 °F 75% 29.80 in 6.2 mi SW 5.8 mph - N/A   Partly Cloudy
7:00 PM 86.0 °F 96.9 °F 77.0 °F 74% 29.80 in 6.2 mi SW 4.6 mph - N/A   Partly Cloudy
8:00 PM 84.2 °F 94.1 °F 77.0 °F 79% 29.83 in 6.2 mi West 5.8 mph - N/A   Partly Cloudy
9:00 PM 82.4 °F 90.9 °F 77.0 °F 84% 29.83 in 6.2 mi West 5.8 mph - N/A   Partly Cloudy
10:00 PM 80.6 °F 87.1 °F 77.0 °F 89% 29.86 in - Calm Calm - N/A   Clear
11:00 PM 78.8 °F - 77.0 °F 94% 29.83 in - Calm Calm - N/A   Clear